FW5313 Weather Reports


Display with metric or nautical units.
time (UTC)temp
F
wind
direction
speed
MPH
gust
MPH
rain 1hr
in
rain 24hr
in
rain mn
in
humidity
%
barometer
mb
20260509185545 43 203 0.0 2.0 0.00 0.04 0.04 95 1009.6
20260509185045 43 203 1.0 2.0 0.00 0.04 0.04 94 1009.6
20260509184554 43 351 1.0 3.0 0.00 0.04 0.04 94 1009.6
20260509184045 43 339 0.0 3.0 0.00 0.04 0.04 94 1009.7
20260509183545 43 44 1.0 4.0 0.00 0.04 0.04 94 1009.7
20260509183102 43 239 0.0 4.0 0.00 0.04 0.04 94 1009.8
20260509182546 43 23 0.0 4.0 0.01 0.04 0.04 94 1009.9
20260509182045 43 22 0.0 4.0 0.01 0.04 0.04 94 1009.9
20260509181553 43 203 1.0 4.0 0.01 0.04 0.04 94 1009.9
20260509181044 43 40 0.0 4.0 0.01 0.04 0.04 94 1009.8
20260509180548 43 93 1.0 4.0 0.02 0.04 0.04 94 1010.0
20260509180054 43 349 0.0 4.0 0.02 0.04 0.04 93 1010.1
20260509175545 43 17 1.0 4.0 0.02 0.04 0.04 93 1010.1
20260509175045 43 193 0.0 3.0 0.03 0.04 0.04 93 1010.1
20260509174549 43 0 0.0 3.0 0.03 0.04 0.04 93 1010.2
20260509174045 43 62 1.0 6.0 0.03 0.04 0.04 92 1010.2
20260509173544 43 219 1.0 6.0 0.03 0.04 0.04 92 1010.2
20260509173058 43 354 1.0 6.0 0.03 0.04 0.04 93 1010.3
20260509172548 43 347 0.0 8.0 0.02 0.03 0.03 92 1010.2
20260509172046 43 321 1.0 8.0 0.02 0.03 0.03 92 1010.4
20260509171608 44 193 1.0 4.0 0.03 0.03 0.03 93 1010.4
20260509171045 43 0 0.0 3.0 0.03 0.03 0.03 92 1010.5
20260509170545 43 352 0.0 4.0 0.02 0.02 0.02 92 1010.5
20260509170051 43 15 0.0 5.0 0.02 0.02 0.02 92 1010.6
20260509165545 43 14 1.0 5.0 0.02 0.02 0.02 91 1010.4
20260509165045 43 73 1.0 5.0 0.01 0.01 0.01 90 1010.5
20260509164558 43 50 1.0 5.0 0.01 0.01 0.01 90 1010.4
20260509164047 43 37 1.0 4.0 0.01 0.01 0.01 89 1010.7
20260509163547 43 127 1.0 6.0 0.01 0.01 0.01 89 1010.6
20260509163059 44 23 1.0 6.0 0.01 0.01 0.01 88 1010.6
20260509162548 44 345 0.0 4.0 0.01 0.01 0.01 88 1010.7
20260509162045 44 305 1.0 2.0 0.01 0.01 0.01 86 1010.6
20260509161557 44 65 1.0 4.0 0.00 0.00 0.00 85 1010.7
20260509161044 44 277 0.0 4.0 0.00 0.00 0.00 83 1010.8
20260509160546 45 4 1.0 5.0 0.00 0.00 0.00 80 1010.7
20260509160058 46 193 2.0 6.0 0.00 0.00 0.00 76 1010.8
20260509155544 46 61 1.0 6.0 0.00 0.00 0.00 73 1010.7
20260509155045 47 0 1.0 5.0 0.00 0.00 0.00 71 1010.7
20260509154553 47 296 1.0 5.0 0.00 0.00 0.00 71 1010.7
20260509154046 48 30 1.0 4.0 0.00 0.00 0.00 68 1010.8
20260509153545 48 193 0.0 4.0 0.00 0.00 0.00 68 1010.9
20260509153058 48 178 1.0 4.0 0.00 0.00 0.00 68 1010.9
20260509152545 48 193 1.0 4.0 0.00 0.00 0.00 67 1010.9
20260509152045 48 0 1.0 4.0 0.00 0.00 0.00 64 1010.8
20260509151558 49 193 1.0 3.0 0.00 0.00 0.00 64 1010.9
20260509151046 49 325 0.0 2.0 0.00 0.00 0.00 62 1010.9
20260509150545 49 121 0.0 4.0 0.00 0.00 0.00 63 1011.0
20260509150054 49 263 0.0 4.0 0.00 0.00 0.00 62 1011.0
20260509145545 49 178 1.0 4.0 0.00 0.00 0.00 61 1011.0
20260509145044 49 76 0.0 2.0 0.00 0.00 0.00 59 1010.9
20260509144551 48 202 0.0 2.0 0.00 0.00 0.00 60 1011.0
20260509144046 48 66 0.0 7.0 0.00 0.00 0.00 60 1011.0
20260509143548 48 288 1.0 7.0 0.00 0.00 0.00 59 1010.8
20260509143050 48 0 0.0 3.0 0.00 0.00 0.00 58 1010.9
20260509142544 48 26 0.0 3.0 0.00 0.00 0.00 57 1010.8
20260509142045 48 233 0.0 3.0 0.00 0.00 0.00 56 1010.9
20260509141555 48 56 0.0 2.0 0.00 0.00 0.00 57 1010.8
20260509141046 48 276 0.0 2.0 0.00 0.00 0.00 60 1010.9
20260509140546 47 202 0.0 2.0 0.00 0.00 0.00 58 1010.9
20260509140053 47 193 0.0 2.0 0.00 0.00 0.00 59 1011.1
20260509135543 47 193 0.0 2.0 0.00 0.00 0.00 58 1010.9
20260509135046 47 0 1.0 2.0 0.00 0.00 0.00 58 1010.9
20260509134556 47 326 0.0 2.0 0.00 0.00 0.00 57 1010.8
20260509134046 47 224 0.0 2.0 0.00 0.00 0.00 57 1010.7
20260509133545 47 271 0.0 3.0 0.00 0.00 0.00 58 1010.9
20260509133052 47 101 0.0 3.0 0.00 0.00 0.00 59 1010.9
20260509132544 47 80 0.0 3.0 0.00 0.00 0.00 61 1010.9
20260509132047 46 0 0.0 2.0 0.00 0.00 0.00 59 1010.8
20260509131609 46 222 0.0 3.0 0.00 0.00 0.00 63 1010.9
20260509131046 45 232 0.0 3.0 0.00 0.00 0.00 62 1011.1
20260509130547 44 170 0.0 4.0 0.00 0.00 0.00 61 1011.1
20260509130104 44 0 0.0 4.0 0.00 0.00 0.00 63 1011.0
20260509125547 43 349 0.0 4.0 0.00 0.00 0.00 66 1011.2
20260509125048 42 323 0.0 2.0 0.00 0.00 0.00 69 1011.2
20260509124549 42 323 0.0 2.0 0.00 0.00 0.00 68 1011.2
20260509124046 41 0 0.0 2.0 0.00 0.00 0.00 72 1011.4
20260509123546 40 0 0.0 1.0 0.00 0.00 0.00 74 1011.4
20260509123055 40 0 0.0 1.0 0.00 0.00 0.00 76 1011.4
20260509122546 39 0 0.0 2.0 0.00 0.00 0.00 77 1011.4
20260509122045 39 193 0.0 2.0 0.00 0.00 0.00 76 1011.5
20260509121551 38 254 0.0 2.0 0.00 0.00 0.00 75 1011.6
20260509121049 37 233 0.0 1.0 0.00 0.00 0.00 78 1011.6
20260509120545 36 0 0.0 2.0 0.00 0.00 0.00 81 1011.7
20260509120051 36 0 0.0 2.0 0.00 0.00 0.00 81 1011.7
20260509115545 35 221 0.0 1.0 0.00 0.00 0.00 83 1011.7
20260509115045 35 0 0.0 1.0 0.00 0.00 0.00 82 1011.7
20260509114607 35 0 0.0 2.0 0.00 0.00 0.00 83 1011.7
20260509114045 35 0 0.0 2.0 0.00 0.00 0.00 82 1011.8
20260509113546 35 0 0.0 2.0 0.00 0.00 0.00 82 1011.6
20260509113055 34 56 0.0 2.0 0.00 0.00 0.00 83 1011.7
20260509112543 34 0 0.0 2.0 0.00 0.00 0.00 85 1011.5
20260509112045 34 80 0.0 1.0 0.00 0.00 0.00 85 1011.6
20260509111549 34 0 0.0 1.0 0.00 0.00 0.00 85 1011.6
20260509111047 34 0 0.0 1.0 0.00 0.00 0.00 84 1011.6
20260509110545 34 0 0.0 1.0 0.00 0.00 0.00 84 1011.6
20260509110103 34 0 0.0 0.0 0.00 0.00 0.00 84 1011.6
20260509105545 34 0 0.0 1.0 0.00 0.00 0.00 84 1011.6
20260509105045 34 0 0.0 1.0 0.00 0.00 0.00 84 1011.5
20260509104557 33 0 0.0 1.0 0.00 0.00 0.00 85 1011.4
20260509104044 33 0 0.0 1.0 0.00 0.00 0.00 84 1011.4
20260509103545 33 81 0.0 0.0 0.00 0.00 0.00 84 1011.5
20260509103051 33 0 0.0 0.0 0.00 0.00 0.00 83 1011.5
20260509102545 33 0 0.0 1.0 0.00 0.00 0.00 83 1011.4
20260509102046 33 80 0.0 1.0 0.00 0.00 0.00 83 1011.4
20260509101549 33 80 0.0 1.0 0.00 0.00 0.00 82 1011.2
20260509101047 34 0 0.0 1.0 0.00 0.00 0.00 81 1011.2
20260509100545 34 0 0.0 1.0 0.00 0.00 0.00 81 1011.3
20260509100053 34 0 0.0 1.0 0.00 0.00 0.00 81 1011.1
20260509095549 34 0 0.0 1.0 0.00 0.00 0.00 82 1010.9
20260509095045 33 80 0.0 1.0 0.00 0.00 0.00 81 1011.0
20260509094559 34 0 0.0 1.0 0.00 0.00 0.00 82 1011.1
20260509094045 34 0 0.0 1.0 0.00 0.00 0.00 82 1011.0
20260509093545 34 0 0.0 1.0 0.00 0.00 0.00 81 1011.1
20260509093056 34 0 0.0 1.0 0.00 0.00 0.00 80 1011.0
20260509092548 34 80 0.0 1.0 0.00 0.00 0.00 79 1010.8
20260509092045 34 0 0.0 1.0 0.00 0.00 0.00 80 1010.9
20260509091555 34 0 0.0 1.0 0.00 0.00 0.00 78 1010.9
20260509091045 34 0 0.0 1.0 0.00 0.00 0.00 76 1010.8
20260509090545 35 0 0.0 1.0 0.00 0.00 0.00 78 1010.8
20260509085546 35 80 0.0 1.0 0.00 0.00 0.00 78 1010.4
20260509085042 35 0 0.0 1.0 0.00 0.00 0.00 78 1010.5
20260509084559 35 80 0.0 1.0 0.00 0.00 0.00 79 1010.4
20260509084046 35 81 0.0 1.0 0.00 0.00 0.00 78 1010.5
20260509083544 35 0 0.0 1.0 0.00 0.00 0.00 78 1010.4
20260509083053 35 80 0.0 1.0 0.00 0.00 0.00 76 1010.4
20260509082543 35 80 0.0 3.0 0.00 0.00 0.00 77 1010.5
20260509082044 35 81 0.0 3.0 0.00 0.00 0.00 77 1010.6
20260509081553 35 94 0.0 1.0 0.00 0.00 0.00 77 1010.6
20260509081042 35 94 0.0 1.0 0.00 0.00 0.00 77 1010.7
20260509080547 35 94 0.0 1.0 0.00 0.00 0.00 77 1010.8
20260509080057 35 0 0.0 1.0 0.00 0.00 0.00 77 1010.7
20260509075545 35 94 0.0 1.0 0.00 0.00 0.00 76 1010.7
20260509075046 35 94 0.0 1.0 0.00 0.00 0.00 75 1010.6
20260509074601 36 94 0.0 1.0 0.00 0.00 0.00 74 1010.5
20260509074045 36 94 0.0 1.0 0.00 0.00 0.00 75 1010.5
20260509073543 36 94 0.0 1.0 0.00 0.00 0.00 75 1010.6
20260509073047 36 94 0.0 1.0 0.00 0.00 0.00 75 1010.6
20260509072547 36 94 0.0 1.0 0.00 0.00 0.00 75 1010.6
20260509072044 36 94 0.0 1.0 0.00 0.00 0.00 74 1010.7
20260509071557 36 94 0.0 1.0 0.00 0.00 0.00 74 1010.7
20260509071043 36 94 0.0 1.0 0.00 0.00 0.00 75 1010.7
20260509070542 36 94 1.0 1.0 0.00 0.00 0.00 74 1010.7
20260509070059 36 94 0.0 1.0 0.00 0.00 0.00 75 1010.8
20260509065545 36 0 0.0 1.0 0.00 0.00 0.00 75 1011.0
20260509065042 36 94 0.0 1.0 0.00 0.00 0.00 75 1011.0
20260509064553 36 94 0.0 1.0 0.00 0.00 0.00 74 1010.9
20260509064043 36 94 0.0 1.0 0.00 0.00 0.00 74 1010.8
20260509063542 36 94 0.0 1.0 0.00 0.00 0.00 73 1010.8
20260509063050 36 94 0.0 1.0 0.00 0.00 0.00 75 1010.9
20260509062545 36 94 0.0 1.0 0.00 0.00 0.00 73 1010.8
20260509062043 36 94 0.0 1.0 0.00 0.00 0.00 74 1010.9
20260509061554 36 94 0.0 1.0 0.00 0.00 0.00 75 1010.9
20260509061045 36 94 0.0 1.0 0.00 0.00 0.00 74 1010.9
20260509060545 37 94 0.0 1.0 0.00 0.00 0.00 74 1010.9
20260509060051 37 94 0.0 1.0 0.00 0.00 0.00 73 1010.9
20260509055545 37 94 0.0 1.0 0.00 0.00 0.00 73 1011.0
20260509055043 37 94 0.0 1.0 0.00 0.00 0.00 73 1011.0
20260509054611 37 94 0.0 1.0 0.00 0.00 0.00 72 1011.1
20260509054043 37 94 0.0 1.0 0.00 0.00 0.00 70 1011.1
20260509053545 37 94 0.0 1.0 0.00 0.00 0.00 70 1011.0
20260509053145 37 94 0.0 1.0 0.00 0.00 0.00 71 1010.9
20260509052545 37 94 0.0 1.0 0.00 0.00 0.00 72 1011.0
20260509052045 37 94 0.0 1.0 0.00 0.00 0.00 71 1010.9
20260509051554 37 0 0.0 1.0 0.00 0.00 0.00 69 1010.8
20260509051045 37 94 0.0 1.0 0.00 0.00 0.00 68 1010.8
20260509050546 37 94 0.0 1.0 0.00 0.00 0.00 68 1010.8
20260509050052 37 94 0.0 1.0 0.00 0.00 0.00 67 1010.7
20260509045545 37 94 0.0 1.0 0.00 0.00 0.00 70 1010.8
20260509045043 38 94 0.0 1.0 0.00 0.00 0.00 67 1010.7
20260509044552 38 94 1.0 1.0 0.00 0.00 0.00 68 1010.7
20260509044045 38 94 1.0 1.0 0.00 0.00 0.00 67 1010.7
20260509043545 38 94 0.0 1.0 0.00 0.00 0.00 67 1010.7
20260509043058 38 94 0.0 1.0 0.00 0.00 0.00 68 1010.6
20260509042545 38 94 0.0 1.0 0.00 0.00 0.00 67 1010.7
20260509042044 38 94 0.0 1.0 0.00 0.00 0.00 68 1010.7
20260509041553 37 94 0.0 1.0 0.00 0.00 0.00 70 1010.7
20260509041042 37 94 0.0 1.0 0.00 0.00 0.00 69 1010.6
20260509040544 37 94 0.0 1.0 0.00 0.00 0.00 67 1010.6
20260509040111 37 94 0.0 1.0 0.00 0.00 0.00 68 1010.5
20260509035545 37 94 0.0 1.0 0.00 0.00 0.00 67 1010.6
20260509035043 37 94 0.0 1.0 0.00 0.00 0.00 67 1010.6
20260509034609 37 94 0.0 1.0 0.00 0.00 0.00 67 1010.6
20260509034042 37 94 0.0 1.0 0.00 0.00 0.00 67 1010.6
20260509033545 37 94 0.0 1.0 0.00 0.00 0.00 68 1010.6
20260509033054 37 94 0.0 1.0 0.00 0.00 0.00 68 1010.6
20260509032545 37 94 0.0 1.0 0.00 0.00 0.00 67 1010.6
20260509032042 37 94 0.0 1.0 0.00 0.00 0.00 68 1010.6
20260509031555 37 94 0.0 1.0 0.00 0.00 0.00 66 1010.6
20260509031043 37 94 0.0 1.0 0.00 0.00 0.00 67 1010.6
20260509030546 38 94 0.0 1.0 0.00 0.00 0.00 66 1010.6
20260509030105 38 94 0.0 1.0 0.00 0.00 0.00 65 1010.4
20260509025542 38 94 1.0 1.0 0.00 0.00 0.00 66 1010.4
20260509025042 38 94 1.0 1.0 0.00 0.00 0.00 63 1010.3
20260509024551 38 94 1.0 1.0 0.00 0.00 0.00 66 1010.3
20260509024043 38 94 1.0 1.0 0.00 0.00 0.00 66 1010.2
20260509023543 38 94 1.0 1.0 0.00 0.00 0.00 67 1010.1
20260509023053 38 94 0.0 1.0 0.00 0.00 0.00 65 1010.2
20260509022626 38 94 0.0 1.0 0.00 0.00 0.00 64 1010.2
20260509022045 38 94 1.0 1.0 0.00 0.00 0.00 64 1010.1
20260509021551 38 0 0.0 1.0 0.00 0.00 0.00 62 1010.2
20260509021047 38 94 0.0 1.0 0.00 0.00 0.00 65 1010.1
20260509020548 38 94 0.0 1.0 0.00 0.00 0.00 65 1010.0
20260509020050 39 94 0.0 1.0 0.00 0.00 0.00 64 1010.0
20260509015548 39 94 0.0 1.0 0.00 0.00 0.00 60 1009.9
20260509015048 39 94 0.0 1.0 0.00 0.00 0.00 60 1009.8
20260509014550 39 94 1.0 1.0 0.00 0.00 0.00 59 1009.8
20260509014046 39 94 0.0 1.0 0.00 0.00 0.00 61 1009.8
20260509013548 40 94 0.0 1.0 0.00 0.00 0.00 62 1009.8
20260509013104 39 94 0.0 1.0 0.00 0.00 0.00 62 1009.7
20260509012545 40 94 0.0 1.0 0.00 0.00 0.00 63 1009.7
20260509012051 40 94 0.0 1.0 0.00 0.00 0.00 62 1009.5
20260509011558 40 94 0.0 1.0 0.00 0.00 0.00 61 1009.4
20260509011046 40 94 0.0 1.0 0.00 0.00 0.00 60 1009.4
20260509010545 40 94 0.0 1.0 0.00 0.00 0.00 60 1009.3
20260509010048 40 94 1.0 1.0 0.00 0.00 0.00 58 1009.1
20260509005545 41 94 0.0 1.0 0.00 0.00 0.00 62 1009.1
20260509005047 41 94 0.0 1.0 0.00 0.00 0.00 60 1009.2
20260509004550 41 94 0.0 1.0 0.00 0.00 0.00 61 1009.1
20260509004048 41 94 0.0 1.0 0.00 0.00 0.00 58 1009.1
20260509003548 41 94 0.0 1.0 0.00 0.00 0.00 56 1008.9
20260509003112 41 94 0.0 1.0 0.00 0.00 0.00 58 1008.8
20260509002546 41 94 0.0 1.0 0.00 0.00 0.00 57 1008.8
20260509002046 42 94 0.0 1.0 0.00 0.00 0.00 58 1008.8
20260509001549 42 94 0.0 1.0 0.00 0.00 0.00 58 1008.7
20260509001046 42 94 0.0 1.0 0.00 0.00 0.00 57 1008.7
20260509000549 42 0 0.0 1.0 0.00 0.00 0.00 57 1008.8
20260509000106 42 0 0.0 1.0 0.00 0.00 0.00 60 1008.8
20260508235545 42 94 0.0 1.0 0.00 0.00 0.00 59 1008.6
20260508235046 42 0 0.0 1.0 0.00 0.00 0.00 58 1008.6
20260508234551 43 94 0.0 1.0 0.00 0.00 0.00 56 1008.5
20260508234049 43 0 0.0 2.0 0.00 0.00 0.00 57 1008.5
20260508233548 44 0 0.0 2.0 0.00 0.00 0.00 57 1008.4
20260508233054 44 0 0.0 2.0 0.00 0.00 0.00 54 1008.3
20260508232547 44 0 0.0 1.0 0.00 0.00 0.00 53 1008.4
20260508232045 45 0 0.0 3.0 0.00 0.00 0.00 51 1008.2
20260508231556 45 0 0.0 3.0 0.00 0.00 0.00 50 1008.2
20260508231042 45 342 1.0 3.0 0.00 0.00 0.00 46 1008.3
20260508230541 45 276 0.0 1.0 0.00 0.00 0.00 50 1008.2
20260508230054 46 254 0.0 1.0 0.00 0.00 0.00 50 1008.2
20260508225542 46 0 0.0 1.0 0.00 0.00 0.00 47 1008.1
20260508225042 46 0 0.0 1.0 0.00 0.00 0.00 50 1008.1
20260508224553 46 0 0.0 2.0 0.00 0.00 0.00 48 1008.1
20260508224044 46 0 1.0 2.0 0.00 0.00 0.00 47 1008.1
20260508223544 46 0 0.0 3.0 0.00 0.00 0.00 45 1008.0
20260508223052 46 256 0.0 3.0 0.00 0.00 0.00 47 1008.1
20260508222544 46 229 1.0 2.0 0.00 0.00 0.00 49 1008.1
20260508222048 46 257 1.0 3.0 0.00 0.00 0.00 45 1008.1
20260508221551 46 0 0.0 3.0 0.00 0.00 0.00 46 1008.0
20260508221044 46 229 0.0 2.0 0.00 0.00 0.00 45 1008.0
20260508220542 47 252 0.0 3.0 0.00 0.00 0.00 47 1007.9
20260508220057 46 215 1.0 3.0 0.00 0.00 0.00 49 1007.9
20260508215545 46 255 2.0 3.0 0.00 0.00 0.00 46 1007.9
20260508215048 47 257 1.0 4.0 0.00 0.00 0.00 45 1007.8
20260508214553 47 257 1.0 5.0 0.00 0.00 0.00 44 1007.8
20260508214045 47 248 2.0 5.0 0.00 0.00 0.00 46 1008.0
20260508213541 48 261 3.0 5.0 0.00 0.00 0.00 47 1007.8
20260508213059 48 250 1.0 5.0 0.00 0.00 0.00 43 1007.8
20260508212543 47 290 1.0 4.0 0.00 0.00 0.00 48 1007.9
20260508212042 47 250 2.0 7.0 0.00 0.00 0.00 46 1007.9
20260508211556 47 256 2.0 7.0 0.00 0.00 0.00 46 1007.7
20260508211048 47 278 2.0 5.0 0.00 0.00 0.00 51 1007.7
20260508210545 47 271 2.0 5.0 0.00 0.00 0.00 47 1007.7
20260508210050 47 274 2.0 5.0 0.00 0.00 0.00 49 1007.6
20260508205544 47 284 2.0 5.0 0.00 0.00 0.00 47 1007.6
20260508205041 47 262 2.0 6.0 0.00 0.00 0.00 47 1007.5
20260508204554 47 275 2.0 6.0 0.00 0.00 0.00 47 1007.5
20260508204041 47 274 1.0 3.0 0.00 0.00 0.00 47 1007.4
20260508203541 47 257 1.0 5.0 0.00 0.00 0.00 47 1007.5
20260508203055 47 267 1.0 5.0 0.00 0.00 0.00 47 1007.4
20260508202543 47 12 1.0 4.0 0.00 0.00 0.00 47 1007.3
20260508202042 47 294 2.0 5.0 0.00 0.00 0.00 48 1007.3
20260508201609 47 250 3.0 7.0 0.00 0.00 0.00 45 1007.3
20260508201042 48 270 3.0 7.0 0.00 0.00 0.00 45 1007.3
20260508200543 49 264 3.0 7.0 0.00 0.00 0.00 43 1007.3
20260508200105 48 260 1.0 5.0 0.00 0.00 0.00 46 1007.4
20260508195546 47 252 1.0 6.0 0.00 0.00 0.00 47 1007.4
20260508195045 48 276 3.0 7.0 0.00 0.00 0.00 43 1007.4
20260508194552 49 233 3.0 7.0 0.00 0.00 0.00 45 1007.5
20260508194044 49 266 3.0 7.0 0.00 0.00 0.00 46 1007.3
20260508193543 49 287 3.0 6.0 0.00 0.00 0.00 48 1007.3
20260508193100 49 267 2.0 8.0 0.00 0.00 0.00 47 1007.3
20260508192545 48 276 3.0 8.0 0.00 0.00 0.00 47 1007.3
20260508192041 47 297 2.0 7.0 0.00 0.00 0.00 50 1007.5
20260508191600 47 333 2.0 5.0 0.00 0.00 0.00 47 1007.3
20260508191043 47 240 2.0 4.0 0.00 0.00 0.00 52 1007.4
20260508190545 47 260 1.0 6.0 0.00 0.00 0.00 47 1007.4
20260508190057 47 307 2.0 6.0 0.00 0.00 0.00 49 1007.5